Location: Moscow
(30.9132°N, 94.8252°W)
Time: 08:25:47
(UTC+00:00)

Okean 1 Rocket - Pass Details

Date: 15 November 2025
Orbit: 599 x 628 km, 82.5° (Epoch: 13 December)

Event Time Altitude Azimuth Distance (km) Brightness Sun altitude
Rises 00:58:47 0° 183° (S) 2,895 6.7 -20.9°
Reaches altitude 10° 01:01:00 10° 182° (S) 1,990 5.8 -21.3°
Maximum altitude 01:05:25 82° 95° (E) 633 2.9 -22.3°
Enters shadow 01:06:41 46° 14° (NNE) 836 3.5 -22.5°
